TJS-22

Last updated on Mon Jun 22 2026 00:03:08 GMT+0000 (Coordinated Universal Time)

1 66990U 25290A 26171.86576182 -.00000011 00000+0 00000+0 0 9999 2 66990 1.5201 286.6283 0001975 330.4567 30.1809 1.00274221 2064
UTC large
Height (km)
Speed (km/s)
/
Latitude / Longitude
Inclination (degrees)
Orbital Period (minutes)
Azimuth
Elevation
Range (km)
Doppler Factor

Next 0 passes for location: London (51.5072 / 0.1276)

No passes found over London.
TJS-22